Location: Devore Heights
(34.2372°N, 117.4156°W)
Time: 20:04:40
(UTC+00:00)

S-56A Canister/Altair - Pass Details

Date: 18 September 2024
Orbit: 636 x 2487 km, 38.9° (Epoch: 14 October)

Event Time Altitude Azimuth Distance (km) Brightness Sun altitude
Rises 02:09:16 0° 261° (W) 3,054 12.6 -4.3°
Reaches altitude 10° 02:11:22 10° 264° (W) 2,240 11.7 -4.7°
Maximum altitude 02:16:28 68° 348° (NNW) 965 8.1 -5.8°
Drops below altitude 10° 02:23:50 10° 71° (ENE) 3,182 10.1 -7.3°
Enters shadow 02:25:26 - 73° (ENE) 3,770 10.5 -7.6°
Sets 02:27:20 0° 74° (ENE) 4,458 - -8.0°
